Location: *
(43.0409°N, 0.1694°E)
Time: 11:46:53
(UTC+00:00)

FENGYUN 1C DEB - Visible Passes

Search period start: 18 June 2024 00:00
Search period end: 28 June 2024 00:00
Orbit: 854 x 916 km, 98.8° (Epoch: 15 June)

Date Brightness Start Highest point End Pass type
(mag) Time Alt. Az. Time Alt. Az. Time Alt. Az.
19 Jun ? 21:07:34 10° W 21:07:42 10° W 21:07:49 10° W visible
20 Jun ? 21:05:00 10° W 21:06:02 10° W 21:07:03 10° WNW visible
21 Jun ? 21:02:55 10° W 21:04:21 11° W 21:05:48 10° WNW visible
22 Jun ? 21:00:55 10° WSW 21:02:41 11° W 21:04:27 10° WNW visible
23 Jun ? 20:59:00 10° WSW 21:01:01 12° W 21:03:04 10° WNW visible
24 Jun ? 20:57:05 10° WSW 20:59:20 12° W 21:01:36 10° WNW visible
25 Jun ? 20:55:12 10° WSW 20:57:39 13° W 21:00:08 10° WNW visible
26 Jun ? 20:53:20 10° WSW 20:55:59 13° W 20:58:39 10° WNW visible
27 Jun ? 20:51:29 10° WSW 20:54:18 14° W 20:57:08 10° WNW visible
